[[{"header":{"parameterUnit":"m.s-1","parameterCategory":1,"la1":30.2991,"la2":30.254,"lo1":-89.0895,"lo2":-89.0444,"dy":0.0017,"dx":0.0017,"nx":28,"ny":28,"refTime":"2023-03-31T21:00:00:Z","depth":0,"parameterNumber":2,"parameterNumberName":"U-component_of_WINDS"},"data":[0,0,0,0,0,0,0,0,0,0,0,0,0,0,0,0,0,0,0,0,0,0,0,0,0,0,0,0,0,0,0,0,0,0,0,0,0,0,0,0,0,0,0,0,0,0,0,0,0,0,0,0,0,0,0,0,0,0,-1.2942,-1.2942,0,-1.2965,-1.2965,-1.2965,-1.2961,-1.2961,-1.296,-1.296,-1.2982,-1.2983,-1.2984,0,0,0,0,0,0,0,0,0,0,0,0,0,-1.2894,-1.2895,-1.2942,-1.2942,-1.2943,-1.2965,-1.2965,-1.2965,-1.2961,-1.2961,-1.296,-1.296,-1.2982,-1.2983,-1.2984,0,0,0,0,0,0,0,0,0,0,0,0,0,-1.2916,-1.2896,-1.2942,-1.2943,-1.2944,-1.2965,-1.2965,-1.2965,-1.2961,-1.2961,-1.296,-1.296,-1.2981,-1.2983,-1.2984,-1.3005,0,0,-1.2989,-1.2989,0,0,0,0,0,0,0,0,-1.2915,-1.2918,-1.2943,-1.2943,-1.2944,-1.296,-1.2956,-1.2979,-1.2961,-1.2955,-1.296,-1.2959,-1.2975,-1.2977,-1.2982,-1.3006,-1.3007,-1.2989,-1.299,-1.299,-1.2991,0,0,0,0,0,0,0,-1.2913,-1.2917,-1.2951,-1.2943,-1.2944,-1.2942,-1.2945,-1.2961,-1.2968,-1.2955,-1.2955,-1.2958,-1.2975,-1.2981,-1.2983,-1.3007,-1.2989,-1.299,-1.2991,-1.2991,-1.3049,-1.305,0,0,0,0,0,0,-1.2911,-1.2915,-1.295,-1.2952,-1.2927,-1.2944,-1.2946,-1.2955,-1.2968,-1.2969,-1.2958,-1.2957,-1.2979,-1.2981,-1.2984,-1.3008,-1.299,-1.2992,-1.2992,-1.3048,-1.3049,-1.305,0,0,0,0,0,0,-1.291,-1.2915,-1.2949,-1.2934,-1.2938,-1.2945,-1.2955,-1.2956,-1.2962,-1.297,-1.2971,-1.2963,-1.2979,-1.2982,-1.3,-1.3009,-1.2992,-1.2994,-1.3048,-1.3049,-1.3049,-1.3058,0,0,0,0,0,0,-1.2909,-1.2914,-1.2922,-1.2934,-1.2939,-1.2965,-1.2956,-1.2957,-1.2964,-1.2964,-1.2975,-1.2976,-1.2978,-1.2998,-1.3001,-1.3011,-1.2995,-1.3047,-1.3048,-1.3049,-1.3057,-1.306,-1.3061,0,0,0,0,0,-1.2907,-1.2924,-1.2923,-1.2927,-1.2949,-1.2966,-1.2969,-1.2971,-1.2965,-1.2973,-1.2979,-1.2976,-1.3008,-1.3,-1.3004,-1.3014,-1.3046,-1.3048,-1.3049,-1.3056,-1.3059,-1.3061,0,0,0,0,0,0,-1.2913,-1.2925,-1.2924,-1.2945,-1.2954,-1.2965,-1.2975,-1.2974,-1.2985,-1.2984,-1.2987,-1.2989,-1.3007,-1.3013,-1.3003,-1.3034,-1.3026,-1.3028,-1.303,-1.3033,-1.3035,-1.3033,-1.2996,0,0,0,0,0,-1.2917,-1.2929,-1.294,-1.2957,-1.2962,-1.2968,-1.2975,-1.2976,-1.2986,-1.299,-1.2997,-1.3006,-1.3018,-1.3026,-1.3038,-1.3058,-1.306,-1.3067,-1.307,-1.3071,-1.3073,-1.3084,-1.3087,-1.3055,-1.3055,-1.3055,0,0,-1.2924,-1.2932,-1.294,-1.2958,-1.2966,-1.2978,-1.2971,-1.2985,-1.2995,-1.2992,-1.3009,-1.3015,-1.3025,-1.3045,-1.3054,-1.305,-1.3082,-1.3073,-1.3074,-1.3075,-1.3086,-1.3089,-1.3091,-1.3056,-1.3056,-1.3055,0,0,-1.2944,-1.2952,-1.2967,-1.2975,-1.2987,-1.2991,-1.2994,-1.3005,-1.3009,-1.3027,-1.3025,-1.3036,-1.3057,-1.3065,-1.3071,-1.3095,-1.3093,-1.3099,-1.3109,-1.312,-1.3123,-1.3125,-1.3132,-1.3135,-1.3101,-1.3101,-1.3101,0,-1.2952,-1.2971,-1.2975,-1.2989,-1.2997,-1.2996,-1.3011,-1.3018,-1.3033,-1.3038,-1.3034,-1.306,-1.3067,-1.3088,-1.3094,-1.31,-1.3103,-1.3097,-1.3122,-1.3124,-1.3126,-1.3134,-1.3137,-1.3101,-1.3101,-1.3101,-1.3101,0,-1.298,-1.2994,-1.3004,-1.3019,-1.3028,-1.3043,-1.3048,-1.3057,-1.3057,-1.3062,-1.308,-1.3088,-1.3102,-1.3107,-1.3108,-1.3128,-1.3125,-1.3122,-1.3113,-1.313,-1.3137,-1.314,-1.3102,-1.3102,-1.3102,-1.3102,0,0,-1.3003,-1.302,-1.3024,-1.303,-1.3043,-1.3054,-1.3068,-1.3082,-1.3089,-1.3099,-1.3111,-1.3129,-1.3126,-1.3133,-1.3135,-1.3145,-1.3162,-1.314,-1.314,-1.3143,-1.3184,-1.3186,-1.3189,-1.3161,-1.3162,-1.3162,-1.3183,0,-1.3024,-1.3049,-1.3053,-1.3076,-1.3088,-1.3088,-1.31,-1.311,-1.3114,-1.3126,-1.3131,-1.3143,-1.3138,-1.3143,-1.3152,-1.3158,-1.317,-1.3157,-1.3171,-1.3172,-1.3167,-1.3193,-1.3195,-1.3214,-1.3186,-1.3186,-1.3186,0,-1.3051,-1.3062,-1.3086,-1.3098,-1.3103,-1.3114,-1.3127,-1.3138,-1.3148,-1.3151,-1.316,-1.316,-1.3175,-1.3167,-1.3187,-1.3177,-1.3184,-1.3188,-1.3188,-1.3189,-1.3179,-1.3193,-1.322,-1.3223,-1.3191,-1.3191,-1.319,0,-1.3064,-1.3086,-1.3103,-1.3108,-1.3122,-1.313,-1.3136,-1.3146,-1.3154,-1.3165,-1.317,-1.3183,-1.3189,-1.3199,-1.3203,-1.3197,-1.3222,-1.3215,-1.3225,-1.3224,-1.3229,-1.3228,-1.3257,-1.3235,-1.3235,-1.3235,-1.3235,0,-1.3086,-1.3101,-1.3109,-1.3119,-1.3135,-1.314,-1.3155,-1.3161,-1.317,-1.3181,-1.3182,-1.3193,-1.3198,-1.3209,-1.3212,-1.3228,-1.3231,-1.3233,-1.3234,-1.3233,-1.3232,-1.3236,-1.3234,-1.3236,-1.3235,-1.3235,-1.3235,0,-1.3103,-1.311,-1.3128,-1.314,-1.3143,-1.3154,-1.3164,-1.3174,-1.3179,-1.3193,-1.3197,-1.3205,-1.3218,-1.3223,-1.3239,-1.3242,-1.3259,-1.3259,-1.3256,-1.3256,-1.3265,-1.3263,-1.3295,-1.33,-1.3276,-1.3276,-1.3277,0,-1.3116,-1.3128,-1.3141,-1.3148,-1.3155,-1.3167,-1.3175,-1.318,-1.3189,-1.3202,-1.321,-1.3223,-1.3234,-1.3255,-1.3262,-1.3274,-1.3274,-1.3284,-1.3275,-1.3274,-1.3273,-1.3272,-1.3272,-1.3285,-1.3285,-1.3286,-1.3286,0,-1.3139,-1.3141,-1.3153,-1.3166,-1.3176,-1.3186,-1.3196,-1.3202,-1.3209,-1.3218,-1.3232,-1.324,-1.3257,-1.327,-1.3283,-1.3288,-1.3288,-1.3289,-1.3291,-1.329,-1.3287,-1.3288,-1.3259,-1.3288,-1.3287,-1.3287,-1.3287,-1.3287,-1.3154,-1.3163,-1.3174,-1.3187,-1.3196,-1.3205,-1.3215,-1.3221,-1.3233,-1.3247,-1.3249,-1.3263,-1.3274,-1.3291,-1.3297,-1.3309,-1.3306,-1.331,-1.3311,-1.3311,-1.3312,-1.3286,-1.3311,-1.3311,-1.3311,-1.3311,-1.3311,0,-1.3175,-1.3183,-1.3195,-1.3209,-1.3219,-1.3218,-1.323,-1.3238,-1.3251,-1.3261,-1.3271,-1.3287,-1.3299,-1.3308,-1.332,-1.3328,-1.3328,-1.3331,-1.333,-1.3331,-1.3314,-1.331,-1.333,-1.333,-1.333,-1.333,-1.333,-1.333,-1.3188,-1.3204,-1.3208,-1.3228,-1.3235,-1.325,-1.3256,-1.3264,-1.3272,-1.329,-1.33,-1.3306,-1.3315,-1.3328,-1.3339,-1.3342,-1.3346,-1.3349,-1.335,-1.3334,-1.3332,-1.333,-1.3326,-1.335,-1.335,-1.3366,-1.3367,-1.3367]},{"header":{"parameterUnit":"m.s-1","parameterCategory":1,"la1":30.2991,"la2":30.254,"lo1":-89.0895,"lo2":-89.0444,"dy":0.0017,"dx":0.0017,"nx":28,"ny":28,"refTime":"2023-03-31T21:00:00:Z","depth":0,"parameterNumber":3,"parameterNumberName":"V-component_of_WINDS"},"data":[0,0,0,0,0,0,0,0,0,0,0,0,0,0,0,0,0,0,0,0,0,0,0,0,0,0,0,0,0,0,0,0,0,0,0,0,0,0,0,0,0,0,0,0,0,0,0,0,0,0,0,0,0,0,0,0,0,0,6.0094,6.0095,0,6.0194,6.0195,6.0197,6.0193,6.0191,6.019,6.0188,6.0284,6.0287,6.0291,0,0,0,0,0,0,0,0,0,0,0,0,0,5.9891,5.9895,6.0093,6.0095,6.0096,6.0194,6.0195,6.0197,6.0193,6.0191,6.0189,6.0188,6.0282,6.0287,6.0291,0,0,0,0,0,0,0,0,0,0,0,0,0,5.9984,5.9896,6.0093,6.0106,6.0108,6.0194,6.0195,6.0197,6.0193,6.0191,6.0189,6.0187,6.0281,6.0286,6.0292,6.0369,0,0,6.031,6.0312,0,0,0,0,0,0,0,0,5.9978,5.9991,6.0103,6.0105,6.0108,6.0179,6.0159,6.0255,6.0194,6.0161,6.0188,6.0186,6.025,6.0258,6.0281,6.0374,6.0378,6.031,6.0314,6.0316,6.0318,0,0,0,0,0,0,0,5.9972,5.9987,6.0133,6.0104,6.0108,6.0104,6.0115,6.0177,6.0215,6.0163,6.0163,6.0176,6.0251,6.0276,6.0283,6.0379,6.031,6.0315,6.0319,6.0321,6.0541,6.0543,0,0,0,0,0,0,5.9964,5.9981,6.013,6.0136,6.0037,6.011,6.0122,6.0158,6.0215,6.0222,6.0177,6.0175,6.0267,6.0277,6.0287,6.0382,6.0316,6.0321,6.0325,6.0538,6.0541,6.0544,0,0,0,0,0,0,5.996,5.9977,6.0126,6.0059,6.0078,6.0116,6.0156,6.0161,6.0186,6.0226,6.0232,6.0196,6.0266,6.0279,6.035,6.0385,6.0324,6.0329,6.0536,6.0539,6.0543,6.0573,0,0,0,0,0,0,5.9954,5.9976,6.0007,6.006,6.0081,6.0189,6.0158,6.0165,6.0197,6.0195,6.0245,6.0251,6.0265,6.0341,6.0355,6.0392,6.0334,6.0533,6.0537,6.0541,6.0569,6.0577,6.0584,0,0,0,0,0,5.9947,6.0009,6.0009,6.0026,6.0122,6.0191,6.0203,6.022,6.02,6.0231,6.0256,6.025,6.0379,6.0348,6.0364,6.0403,6.053,6.0536,6.0541,6.0565,6.0575,6.0584,0,0,0,0,0,0,5.9956,6.0016,6.0016,6.0098,6.014,6.0191,6.023,6.023,6.0276,6.0272,6.0289,6.03,6.0372,6.0394,6.0359,6.0482,6.0452,6.0461,6.0465,6.0474,6.0482,6.0475,6.0338,0,0,0,0,0,5.9969,6.0023,6.0071,6.0139,6.016,6.0192,6.0222,6.0232,6.0275,6.0292,6.0322,6.0362,6.0412,6.0444,6.0492,6.0572,6.0582,6.0606,6.0614,6.062,6.0627,6.0672,6.0684,6.0562,6.0562,6.0562,0,0,5.9993,6.0033,6.0065,6.0142,6.0175,6.0229,6.0206,6.0263,6.0303,6.0299,6.037,6.0394,6.0439,6.0515,6.055,6.0536,6.0664,6.0627,6.0631,6.0636,6.0679,6.0691,6.0701,6.0565,6.0565,6.0564,0,0,6.0066,6.0102,6.0163,6.0198,6.025,6.0271,6.0286,6.0337,6.0354,6.0425,6.0424,6.047,6.0555,6.0588,6.0616,6.0703,6.0699,6.0718,6.0758,6.0801,6.0811,6.0819,6.0852,6.0863,6.0725,6.0725,6.0725,0,6.009,6.0174,6.0194,6.0253,6.0287,6.0289,6.035,6.0382,6.0446,6.0468,6.0452,6.0561,6.0591,6.0676,6.0697,6.0719,6.0736,6.0712,6.0808,6.0817,6.0825,6.0856,6.0868,6.0727,6.0727,6.0727,6.0726,0,6.0201,6.0259,6.0301,6.0368,6.0405,6.0465,6.0492,6.0528,6.0535,6.0557,6.0629,6.0666,6.0722,6.0742,6.0748,6.0828,6.0818,6.0805,6.0776,6.0839,6.0868,6.088,6.073,6.0729,6.0729,6.0728,0,0,6.0282,6.0361,6.0376,6.0407,6.0465,6.0509,6.0568,6.0627,6.0657,6.0701,6.0751,6.0824,6.0813,6.0844,6.0853,6.0892,6.096,6.0874,6.0875,6.089,6.1052,6.1062,6.1076,6.0957,6.096,6.0962,6.1048,0,6.0363,6.0472,6.0492,6.0587,6.0641,6.0644,6.0696,6.0736,6.0758,6.0805,6.0828,6.0881,6.0861,6.0881,6.0919,6.0944,6.0993,6.0938,6.1003,6.1005,6.0993,6.1091,6.1102,6.1182,6.106,6.1062,6.1063,0,6.0471,6.0522,6.0623,6.0676,6.07,6.0746,6.0802,6.0847,6.0893,6.0906,6.0943,6.0948,6.1008,6.0976,6.1058,6.102,6.1048,6.1064,6.1068,6.1075,6.1039,6.1102,6.1208,6.1221,6.1081,6.108,6.1078,0,6.0523,6.0616,6.0689,6.0715,6.0778,6.0811,6.0838,6.0882,6.0916,6.0963,6.0986,6.1038,6.1067,6.1106,6.1125,6.11,6.1207,6.1176,6.1219,6.1219,6.1242,6.1241,6.1356,6.1258,6.1258,6.1258,6.1258,0,6.0611,6.0673,6.0713,6.0758,6.0827,6.0849,6.0916,6.0942,6.0981,6.103,6.1034,6.1079,6.1101,6.1149,6.1163,6.123,6.1242,6.1254,6.1257,6.1255,6.1253,6.1274,6.1269,6.1261,6.126,6.126,6.1259,0,6.068,6.071,6.079,6.0845,6.086,6.0909,6.0954,6.0997,6.1019,6.1081,6.1096,6.1131,6.1187,6.121,6.1278,6.1288,6.1366,6.1364,6.1352,6.1353,6.1395,6.1392,6.1528,6.1547,6.1436,6.1437,6.1438,0,6.0736,6.0784,6.0845,6.088,6.0909,6.0964,6.1,6.1023,6.1059,6.1116,6.1152,6.1209,6.1257,6.1347,6.1376,6.1428,6.1429,6.1473,6.1436,6.1433,6.1431,6.1428,6.1434,6.148,6.1481,6.1482,6.1482,0,6.0831,6.0844,6.0897,6.0956,6.1,6.1046,6.1091,6.1119,6.1148,6.1188,6.1249,6.1285,6.1357,6.1414,6.1468,6.1494,6.1493,6.1494,6.1507,6.1505,6.1497,6.1503,6.1371,6.1491,6.149,6.1489,6.1489,6.1488,6.0896,6.0939,6.099,6.105,6.1087,6.113,6.1173,6.1203,6.1254,6.1317,6.1326,6.139,6.1434,6.1508,6.1536,6.1585,6.1573,6.1592,6.1596,6.1601,6.1605,6.1488,6.1594,6.1594,6.1594,6.1594,6.1594,0,6.0992,6.1026,6.108,6.1146,6.1192,6.119,6.124,6.1279,6.1337,6.1379,6.1427,6.1496,6.1552,6.1586,6.1642,6.1674,6.1676,6.1688,6.1687,6.1693,6.1611,6.1595,6.1687,6.1687,6.1687,6.1687,6.1687,6.1687,6.1048,6.1123,6.1142,6.1235,6.1267,6.1333,6.1362,6.1401,6.1436,6.1514,6.1562,6.1585,6.1624,6.1683,6.1733,6.1742,6.1762,6.1776,6.1784,6.1708,6.1698,6.1689,6.1674,6.178,6.1781,6.1861,6.1862,6.1863]}]]